Regional Weather Roundup
Issued by NWS

Home | Current Version | Previous Version | Text Only | Print | Product List | Glossary Off
Versions: 1 2 3 4 5 6 7 8 9 10 11 12 13 14 15 16 17 18 19 20 21 22 23 24 25 26 27 28 29 30 31 32 33 34 35 36 37 38 39 40 41 42 43 44 45 46 47 48 49 50

000
ASUS43 KIND 212209
RWRIN

WEATHER ROUNDUP FOR INDIANA
NATIONAL WEATHER SERVICE INDIANAPOLIS IN
600 PM EDT MON AUG 21 2017

NOTE: "FAIR" INDICATES FEW OR NO CLOUDS BELOW 12,000 FEET WITH NO
SIGNIFICANT WEATHER AND/OR OBSTRUCTIONS TO VISIBILITY.

* - STATION DOES NOT REPORT WEATHER SUCH AS PRECIPITATION OR FOG.

+ - STATION NOT QUALITY CONTROLLED BY THE NATIONAL WEATHER SERVICE.
    USE DATA WITH CAUTION...ESPECIALLY DEWPOINT AND RELATIVE
    HUMIDITY OBSERVATIONS.

INZ001>003-010>013-019-020-212300-
NORTHWEST INDIANA

CITY           SKY/WX    TMP DP  RH WIND       PRES   REMARKS
GARY /AIRPORT/ PTSUNNY   86  70  58 SE15      29.99F
KNOX *+        CLOUDY    81  70  69 SE10      30.00F
LA PORTE +     MOSUNNY   82  71  68 S8        30.01F
MICHIGAN CITY+ MOSUNNY   82  70  65 S8        29.99F
MONTICELLO +   SUNNY     84  71  65 S9        30.02R
RENSSELAER +   MOSUNNY   82  68  61 S9        30.03R
VALPARAISO     SUNNY     85  72  65 S9        30.00F

$$

LMZ046-743>745-212300-
SOUTHERN LAKE MICHIGAN

STATION/POSITION TIME  TEMP    WIND        PRES    WAVE
                       AIR SEA DIR/SP/G            HT
                 (UTC) (F)     (DEG/KT/KT) (MB)    (FT)
BURNS HARBOR     2140   85     140/  8/ 16 1015.2F
MICHIGAN CITY    2140   83     140/  7/  9   N/A
5NW MICH CITY    2200   78 76  140/  2/  4   N/A     1

$$

INZ004-005-014>016-021>024-212300-
NORTH CENTRAL INDIANA

CITY           SKY/WX    TMP DP  RH WIND       PRES   REMARKS
ELKHART        CLOUDY    84  68  58 SW6       30.00F
GOSHEN         MOSUNNY   83  69  62 S8        30.01F
LOGANSPORT +   SUNNY     82  72  69 S10       30.04S
PERU/GRISSOM   MOSUNNY   84  74  73 S9        30.03F
ROCHESTER +    CLOUDY    88  70  55 S7        30.03S
SOUTH BEND     CLOUDY    84  71  65 SW10      30.00F
WARSAW +       MOSUNNY   81  68  65 S3        30.02F

$$

INZ006>009-017-018-025>027-212300-
NORTHEAST INDIANA

CITY           SKY/WX    TMP DP  RH WIND       PRES   REMARKS
AUBURN +       PTSUNNY   84  66  54 SW7       30.04F
FORT WAYNE     PTSUNNY   85  70  60 S8        30.05S
HUNTINGTON +   PTSUNNY   83  73  69 SW6       30.04S

$$

INZ028-029-035-036-043>045-051>053-212300-
WEST CENTRAL INDIANA

CITY           SKY/WX    TMP DP  RH WIND       PRES   REMARKS
GREENCASTLE +  MOSUNNY   79  68  69 S9        30.08F
LAFAYETTE      SUNNY     84  71  65 S9        30.03S
TERRE HAUTE    MOSUNNY   80  71  74 S7        30.07F

$$

INZ030>032-037>040-046>048-054>057-064-065-212300-
CENTRAL INDIANA

CITY           SKY/WX    TMP DP  RH WIND       PRES   REMARKS
CP ATTERBURY + LGT RAIN  77  70  78 NW6       30.12R
COLUMBUS       MOSUNNY   82  64  54 SW6       30.10R
FRANKFORT +    CLOUDY    85  72  65 S5        30.08R
GREENWOOD *+   CLOUDY    74  70  86 SW6       30.11F
INDIANAPOLIS   PTSUNNY   78  68  71 S9        30.08F
-EAGLE CREEK   CLOUDY    80  70  71 S6        30.08S
KOKOMO +       SUNNY     83  76  79 S12       30.06S
MARION +       SUNNY     81  66  61 S8        30.08S
MT COMFORT *+  CLOUDY    77  73  88 CALM      30.11R
SHELBYVILLE    LGT RAIN  77  70  79 SW7       30.11R
ZIONSVILLE +   MOSUNNY   81  70  70 S9        30.09S

$$

INZ033-034-041-042-049-050-058-059-212300-
EAST CENTRAL INDIANA

CITY           SKY/WX    TMP DP  RH WIND       PRES   REMARKS
MUNCIE         CLOUDY    82  68  62 S8        30.09R
RICHMOND +     CLOUDY    79  72  78 SW5       30.13R

$$

INZ060-061-067>069-081>083-085>088-212300-
SOUTHWEST INDIANA

CITY           SKY/WX    TMP DP  RH WIND       PRES   REMARKS
EVANSVILLE     SUNNY     91  69  48 S7        30.05F HX  96
HUNTINGBURG +  MOSUNNY   90  72  55 MISG      30.08F HX  97
WASHINGTON +   LGT RAIN  74  72  93 MISG      30.08F

$$

INZ062-063-066-070>080-084-089>092-212300-
SOUTH CENTRAL AND SOUTHEAST INDIANA

CITY           SKY/WX    TMP DP  RH WIND       PRES   REMARKS
BEDFORD +      CLOUDY    81  70  69 CALM      30.08F
BLOOMINGTON    LGT RAIN  77  70  79 E3        30.10F
MADISON *+     CLOUDY    86  72  62 CALM      30.13R
NORTH VERNON + CLOUDY    81  72  74 CALM      30.11R
SEYMOUR +      CLOUDY    84  72  65 CALM      30.09R

$$





USA.gov is the U.S. government's official web portal to all federal, state and local government web resources and services.